Weather History for Farmingdale, NY

Change the Weather History Date:

Wednesday, June 12, 2013

  Actual Average Record
Temperature  
Mean Temperature 70 °F -  
Max Temperature 75 °F 72 °F 88 °F (2002)
Min Temperature 63 °F 57 °F 52 °F (2004)
Cooling Degree Days 4    
Growing Degree Days 20 (Base 50)    
Moisture  
Dew Point 52 °F    
Average Humidity 55    
Maximum Humidity 75    
Minimum Humidity 41    
Precipitation  
Precipitation 0.00 in - - ()
Sea Level Pressure  
Sea Level Pressure 29.78 in    
Wind  
Wind Speed 10 mph (NW)    
Max Wind Speed 18 mph    
Max Gust Speed 26 mph    
Visibility 10 miles    
Events      
Averages and records for this station are not official NWS values.
T = Trace of Precipitation, MM = Missing Value Source: NWS Daily Summary

Daily Weather History Graph

Daily Weather History Graph

Search for Another Location

Airport:

Trip Planner

Search our weather history database for the weather conditions in past years. The results will help you decide how hot, cold, wet, or windy it might be!

Date:

Astronomy

Jun. 12, 2013 Rise Set
Actual Time 5:21 AM EDT 8:25 PM EDT
Civil Twilight 4:48 AM EDT 8:58 PM EDT
Nautical Twilight 4:06 AM EDT 9:41 PM EDT
Astronomical Twilight 3:16 AM EDT 10:31 PM EDT
Moon 8:59 AM EDT (6/12) 10:58 PM EDT (6/12)
Length of Visible Light 16h 10m
Length of Day
15h 03m
Waxing Crescent, 14% of the Moon is Illuminated
Jun 12
Waxing Crescent
Jun 16
First Quarter
Jun 23
Full
Jun 30
Last Quarter
Jul 8
New

Hourly Weather History & Observations

Time (EDT) Temp. Dew Point Humidity Pressure Visibility Wind Dir Wind Speed Gust Speed Precip Events Conditions
12:53 AM 69.1 °F 57.0 °F 65% 29.71 in 10.0 mi NW 4.6 mph - N/A   Clear
1:53 AM 68.0 °F 55.9 °F 65% 29.71 in 10.0 mi West 8.1 mph - N/A   Clear
2:53 AM 68.0 °F 55.9 °F 65% 29.70 in 10.0 mi WNW 6.9 mph - N/A   Mostly Cloudy
3:53 AM 69.1 °F 55.9 °F 63% 29.70 in 10.0 mi NW 11.5 mph 25.3 mph N/A   Mostly Cloudy
4:53 AM 66.9 °F 55.0 °F 66% 29.71 in 10.0 mi WNW 12.7 mph 24.2 mph N/A   Clear
5:53 AM 66.0 °F 53.1 °F 63% 29.73 in 10.0 mi NW 8.1 mph - N/A   Partly Cloudy
6:53 AM 64.9 °F 51.1 °F 61% 29.75 in 10.0 mi NW 17.3 mph 25.3 mph N/A   Clear
7:53 AM 64.9 °F 50.0 °F 58% 29.75 in 10.0 mi WNW 12.7 mph 26.5 mph N/A   Clear
8:53 AM 66.9 °F 51.1 °F 57% 29.77 in 10.0 mi WNW 15.0 mph 21.9 mph N/A   Clear
9:53 AM 69.1 °F 52.0 °F 54% 29.77 in 10.0 mi NW 12.7 mph 24.2 mph N/A   Clear
10:53 AM 71.1 °F 52.0 °F 51% 29.77 in 10.0 mi NW 12.7 mph 21.9 mph N/A   Partly Cloudy
11:53 AM 72.0 °F 51.1 °F 48% 29.78 in 10.0 mi NNW 16.1 mph 26.5 mph N/A   Clear
12:53 PM 73.0 °F 51.1 °F 46% 29.79 in 10.0 mi NNW 9.2 mph 19.6 mph N/A   Partly Cloudy
1:53 PM 73.9 °F 51.1 °F 45% 29.79 in 10.0 mi NW 15.0 mph 24.2 mph N/A   Mostly Cloudy
2:53 PM 75.0 °F 51.1 °F 43% 29.80 in 10.0 mi NNW 18.4 mph 26.5 mph N/A   Partly Cloudy
3:53 PM 75.0 °F 50.0 °F 41% 29.79 in 10.0 mi NNW 13.8 mph 25.3 mph N/A   Partly Cloudy
4:53 PM 75.0 °F 50.0 °F 41% 29.79 in 10.0 mi NW 16.1 mph 24.2 mph N/A   Clear
5:53 PM 75.0 °F 50.0 °F 41% 29.81 in 10.0 mi NNW 13.8 mph 20.7 mph N/A   Clear
6:53 PM 75.0 °F 51.1 °F 43% 29.81 in 10.0 mi NW 8.1 mph - N/A   Clear
7:53 PM 73.0 °F 51.1 °F 46% 29.84 in 10.0 mi North 8.1 mph - N/A   Clear
8:53 PM 70.0 °F 52.0 °F 53% 29.85 in 10.0 mi NNE 3.5 mph - N/A   Clear
9:53 PM 68.0 °F 53.1 °F 59% 29.85 in 10.0 mi Calm Calm - N/A   Clear
10:53 PM 64.9 °F 54.0 °F 68% 29.84 in 10.0 mi Calm Calm - N/A   Clear
11:53 PM 63.0 °F 55.0 °F 75% 29.83 in 10.0 mi NNE 3.5 mph - N/A   Clear